TimeMST,TemperatureF,Dew PointF,Humidity,Sea Level PressureIn,VisibilityMPH,Wind Direction,Wind SpeedMPH,Gust SpeedMPH,PrecipitationIn,Events,Conditions,WindDirDegrees,DateUTC
12:53 AM,18.0,10.0,71,30.01,10.0,WNW,15.0,-,N/A,,Clear,300,2013-01-30 07:53:00
1:53 AM,14.0,8.1,77,30.03,10.0,West,15.0,-,N/A,,Clear,280,2013-01-30 08:53:00
2:53 AM,15.1,8.1,74,30.03,10.0,West,11.5,-,N/A,,Clear,280,2013-01-30 09:53:00
3:53 AM,15.1,8.1,74,30.03,10.0,West,11.5,-,N/A,,Clear,270,2013-01-30 10:53:00
4:53 AM,18.0,9.0,68,30.04,10.0,WSW,9.2,-,N/A,,Overcast,250,2013-01-30 11:53:00
5:53 AM,15.1,7.0,70,30.09,10.0,West,11.5,-,N/A,,Clear,270,2013-01-30 12:53:00
6:53 AM,10.9,3.9,73,30.10,10.0,WNW,11.5,-,N/A,,Clear,290,2013-01-30 13:53:00
7:53 AM,14.0,6.1,71,30.10,10.0,SW,6.9,-,N/A,,Clear,220,2013-01-30 14:53:00
8:53 AM,19.9,10.0,65,30.07,10.0,SW,8.1,-,N/A,,Clear,230,2013-01-30 15:53:00
9:53 AM,21.9,10.9,63,30.05,10.0,SW,12.7,-,N/A,,Clear,220,2013-01-30 16:53:00
10:53 AM,26.1,12.0,55,30.02,10.0,WSW,10.4,-,N/A,,Clear,240,2013-01-30 17:53:00
11:53 AM,30.9,15.1,52,29.96,10.0,SW,12.7,-,N/A,,Clear,220,2013-01-30 18:53:00
12:53 PM,36.0,12.9,39,29.92,10.0,SSW,11.5,-,N/A,,Clear,210,2013-01-30 19:53:00
1:53 PM,39.9,14.0,35,29.91,10.0,West,9.2,-,N/A,,Clear,260,2013-01-30 20:53:00
2:53 PM,42.1,10.0,27,29.91,10.0,West,3.5,-,N/A,,Clear,280,2013-01-30 21:53:00
3:53 PM,42.1,12.0,29,29.91,10.0,SSW,5.8,-,N/A,,Scattered Clouds,210,2013-01-30 22:53:00
4:53 PM,39.9,14.0,35,29.92,10.0,SSW,4.6,-,N/A,,Clear,210,2013-01-30 23:53:00
5:53 PM,37.9,14.0,38,29.94,10.0,South,5.8,-,N/A,,Clear,180,2013-01-31 00:53:00
6:53 PM,35.1,12.9,40,29.98,10.0,SSW,4.6,-,N/A,,Clear,200,2013-01-31 01:53:00
7:53 PM,30.9,15.1,52,30.00,10.0,SSW,8.1,-,N/A,,Clear,210,2013-01-31 02:53:00
8:53 PM,30.0,15.1,54,29.99,10.0,SW,10.4,-,N/A,,Clear,220,2013-01-31 03:53:00
9:53 PM,30.0,17.1,59,29.98,10.0,SW,15.0,-,N/A,,Clear,230,2013-01-31 04:53:00
10:53 PM,26.1,17.1,69,30.00,10.0,Calm,Calm,-,N/A,,Clear,0,2013-01-31 05:53:00
11:53 PM,26.1,16.0,66,29.97,10.0,SW,11.5,-,N/A,,Clear,230,2013-01-31 06:53:00